Weather History for St. Petersburg, FL

Change the Weather History Date:

Tuesday, July 16, 2013

  Actual Average Record
Temperature  
Mean Temperature 84 °F -  
Max Temperature 91 °F 90 °F 97 °F (2007)
Min Temperature 77 °F 76 °F 72 °F (1960)
Cooling Degree Days 18    
Growing Degree Days 34 (Base 50)    
Moisture  
Dew Point 75 °F    
Average Humidity 83    
Maximum Humidity 94    
Minimum Humidity 59    
Precipitation  
Precipitation 0.30 in - - ()
Sea Level Pressure  
Sea Level Pressure 30.12 in    
Wind  
Wind Speed 15 mph (ESE)    
Max Wind Speed 37 mph    
Max Gust Speed 45 mph    
Visibility 9 miles    
Events Rain    
Averages and records for this station are not official NWS values.
T = Trace of Precipitation, MM = Missing Value Source: NWS Daily Summary

Daily Weather History Graph

Daily Weather History Graph

Search for Another Location

Airport:

Trip Planner

Search our weather history database for the weather conditions in past years. The results will help you decide how hot, cold, wet, or windy it might be!

Date:

Astronomy

Jul. 16, 2013 Rise Set
Actual Time 6:45 AM EDT 8:27 PM EDT
Civil Twilight 6:19 AM EDT 8:53 PM EDT
Nautical Twilight 5:47 AM EDT 9:25 PM EDT
Astronomical Twilight 5:14 AM EDT 9:58 PM EDT
Moon 2:19 PM EDT (7/16) 12:58 AM EDT (7/16)
Length of Visible Light 14h 34m
Length of Day
13h 42m
First Quarter, 56% of the Moon is Illuminated
Jul 16
First Quarter
Jul 22
Full
Jul 29
Last Quarter
Aug 6
New
Aug 14
First Quarter

Hourly Weather History & Observations

Time (EDT) Temp. Heat Index Dew Point Humidity Pressure Visibility Wind Dir Wind Speed Gust Speed Precip Events Conditions
12:53 AM 81.0 °F 86.2 °F 73.9 °F 79% 30.10 in 10.0 mi ESE 9.2 mph - N/A   Scattered Clouds
1:53 AM 80.1 °F 85.1 °F 75.0 °F 85% 30.09 in 10.0 mi SE 11.5 mph - N/A   Mostly Cloudy
2:53 AM 80.1 °F 85.1 °F 75.0 °F 85% 30.08 in 10.0 mi ESE 13.8 mph - N/A   Clear
3:53 AM 79.0 °F - 75.0 °F 88% 30.07 in 10.0 mi SE 13.8 mph - N/A   Clear
4:53 AM 80.1 °F 85.1 °F 75.0 °F 85% 30.07 in 10.0 mi ESE 13.8 mph - N/A   Clear
5:53 AM 79.0 °F - 75.9 °F 90% 30.08 in 10.0 mi East 16.1 mph - N/A   Partly Cloudy
6:53 AM 80.1 °F 85.1 °F 75.0 °F 85% 30.10 in 10.0 mi East 15.0 mph - N/A   Clear
7:53 AM 81.0 °F 87.3 °F 75.9 °F 85% 30.11 in 10.0 mi East 15.0 mph - N/A   Clear
8:53 AM 82.0 °F 89.4 °F 75.9 °F 82% 30.12 in 10.0 mi East 16.1 mph - N/A   Clear
9:53 AM 82.9 °F 89.4 °F 73.9 °F 74% 30.12 in 10.0 mi ESE 11.5 mph - N/A   Partly Cloudy
10:53 AM 84.9 °F 92.1 °F 73.9 °F 69% 30.14 in 10.0 mi ESE 13.8 mph - N/A   Partly Cloudy
11:53 AM 87.1 °F 95.4 °F 73.9 °F 65% 30.14 in 10.0 mi ESE 12.7 mph - N/A   Clear
12:53 PM 87.1 °F 96.3 °F 75.0 °F 67% 30.12 in 10.0 mi East 15.0 mph - N/A   Clear
1:53 PM 90.0 °F 99.0 °F 73.9 °F 59% 30.11 in 10.0 mi East 12.7 mph - N/A   Partly Cloudy
2:53 PM 82.0 °F 87.4 °F 73.0 °F 74% 30.10 in 10.0 mi SSE 29.9 mph 38.0 mph N/A   Mostly Cloudy
3:00 PM 81.0 °F 86.7 °F 75.0 °F 82% 30.14 in 5.0 mi SE 36.8 mph 44.9 mph 0.00 in Rain Light Rain
3:11 PM 78.1 °F - 75.0 °F 90% 30.16 in 2.5 mi ESE 29.9 mph 42.6 mph 0.05 in Rain Rain
3:17 PM 77.0 °F - 75.0 °F 94% 30.15 in 1.0 mi SE 26.5 mph 39.1 mph 0.20 in Rain Heavy Rain
3:24 PM 77.0 °F - 75.0 °F 94% 30.13 in 0.8 mi SE 24.2 mph 34.5 mph 0.30 in Rain Heavy Rain
3:31 PM 77.0 °F - 75.0 °F 94% 30.13 in 2.0 mi SSE 23.0 mph 31.1 mph 0.30 in Rain Light Rain
3:36 PM 77.0 °F - 75.0 °F 94% 30.13 in 10.0 mi SE 20.7 mph - 0.30 in   Mostly Cloudy
3:53 PM 78.1 °F - 75.0 °F 90% 30.12 in 10.0 mi SE 16.1 mph - 0.30 in   Scattered Clouds
4:53 PM 79.0 °F - 73.0 °F 82% 30.12 in 10.0 mi East 17.3 mph - 0.00 in Rain Light Rain
5:53 PM 79.0 °F - 73.9 °F 84% 30.11 in 10.0 mi East 16.1 mph - 0.00 in   Partly Cloudy
6:53 PM 79.0 °F - 73.9 °F 84% 30.11 in 10.0 mi East 10.4 mph - N/A   Clear
7:53 PM 79.0 °F - 73.9 °F 84% 30.12 in 10.0 mi East 15.0 mph - N/A   Clear
8:53 PM 79.0 °F - 73.9 °F 84% 30.13 in 10.0 mi East 13.8 mph - N/A   Clear
9:53 PM 79.0 °F - 75.0 °F 88% 30.14 in 10.0 mi East 15.0 mph - N/A   Clear
10:53 PM 79.0 °F - 75.0 °F 88% 30.14 in 10.0 mi East 16.1 mph - N/A   Clear
11:53 PM 79.0 °F - 75.0 °F 88% 30.14 in 10.0 mi East 12.7 mph - N/A   Clear